EW6157 Weather Reports


time (UTC)temp
F
wind
direction
speed
knots
gust
knots
rain 1hr
in
rain 24hr
in
rain mn
in
humidity
%
barometer
mb
20260504120110 57 215 4.3 7.8 0.00 0.00 0.00 63 1003.8
20260504081517 59 220 4.3 11.3 0.00 0.00 0.00 55 1005.5
20260504060106 61 190 1.7 6.1 0.00 0.00 0.00 48 1007.2
20260504044550 59 199 0.9 6.1 0.00 0.00 0.00 43 1007.8
20260504043045 59 162 0.0 1.7 0.00 0.00 0.00 42 1007.9
20260504041545 60 122 0.0 1.7 0.00 0.00 0.00 41 1007.9
20260504040047 61 122 0.0 1.7 0.00 0.00 0.00 40 1007.9
20260504034544 61 114 0.0 1.7 0.00 0.00 0.00 38 1007.9
20260504033051 62 154 0.0 2.6 0.00 0.00 0.00 37 1008.1
20260504031544 64 124 0.0 1.7 0.00 0.00 0.00 36 1007.9
20260504030046 66 171 0.9 3.5 0.00 0.00 0.00 34 1007.8
20260504024555 66 174 1.7 4.3 0.00 0.00 0.00 33 1007.7
20260504023044 67 225 0.9 5.2 0.00 0.00 0.00 33 1007.6
20260504021550 67 191 0.9 3.5 0.00 0.00 0.00 32 1007.6
20260504020047 69 181 0.9 4.3 0.00 0.00 0.00 31 1007.5
20260504014540 70 196 1.7 7.8 0.00 0.00 0.00 29 1007.4
20260504013047 72 214 3.5 9.6 0.00 0.00 0.00 28 1007.4
20260504011540 74 197 4.3 10.4 0.00 0.00 0.00 28 1007.4
20260504010037 75 239 7.0 12.2 0.00 0.00 0.00 28 1007.3
20260504004542 75 221 6.1 13.0 0.00 0.00 0.00 25 1007.5
20260504003032 76 186 5.2 12.2 0.00 0.00 0.00 25 1007.7
20260504001532 76 203 6.1 11.3 0.00 0.00 0.00 26 1007.7
20260504000030 77 212 6.1 13.9 0.00 0.00 0.00 25 1007.8
20260503234530 77 198 7.0 14.8 0.00 0.00 0.00 25 1007.8
20260503233031 78 206 6.1 15.6 0.00 0.00 0.00 25 1007.9
20260503231528 78 218 8.7 16.5 0.00 0.00 0.00 25 1007.8
20260503230032 79 136 6.1 10.4 0.00 0.00 0.00 22 1007.9
20260503224525 79 231 7.0 14.8 0.00 0.00 0.00 21 1008.2
20260503223023 79 193 6.1 11.3 0.00 0.00 0.00 21 1008.4
20260503221519 79 215 8.7 13.9 0.00 0.00 0.00 20 1008.8
20260503220018 79 196 3.5 13.9 0.00 0.00 0.00 22 1009.0
20260503214516 79 212 7.8 14.8 0.00 0.00 0.00 23 1009.5
20260503213113 78 214 6.1 14.8 0.00 0.00 0.00 22 1009.8
20260503211606 78 269 8.7 14.8 0.00 0.00 0.00 22 1010.2
20260503210057 80 190 7.8 18.2 0.00 0.00 0.00 21 1010.5
20260503204556 79 183 6.1 13.9 0.00 0.00 0.00 21 1010.6
20260503203052 78 212 7.0 15.6 0.00 0.00 0.00 22 1011.1
20260503201549 79 194 6.1 16.5 0.00 0.00 0.00 23 1011.5
20260503200049 78 230 6.1 13.9 0.00 0.00 0.00 22 1011.8
20260503194549 77 226 7.0 13.9 0.00 0.00 0.00 23 1012.1
20260503193043 76 168 6.1 13.9 0.00 0.00 0.00 26 1012.3
20260503191540 76 179 5.2 12.2 0.00 0.00 0.00 25 1012.5
20260503190042 75 214 7.0 13.9 0.00 0.00 0.00 25 1013.0
20260503184537 75 211 5.2 15.6 0.00 0.00 0.00 26 1013.2
20260503183033 75 231 7.8 17.4 0.00 0.00 0.00 26 1013.6
20260503181533 75 224 7.8 16.5 0.00 0.00 0.00 27 1013.9
20260503180026 74 181 5.2 14.8 0.00 0.00 0.00 29 1014.1
20260503174527 74 179 6.1 13.0 0.00 0.00 0.00 29 1014.4
20260503173022 74 274 8.7 14.8 0.00 0.00 0.00 29 1014.8
20260503171517 72 117 6.1 13.9 0.00 0.00 0.00 31 1015.1